Regional Weather Roundup
Issued by NWS Burlington, VT

Home | Current Version | Previous Version | Text Only | Print | Product List | Glossary On
Versions: 1 2 3 4 5 6 7 8 9 10 11 12 13 14 15 16 17 18 19 20 21 22 23 24 25 26 27 28 29 30 31 32 33 34 35 36 37 38 39 40 41 42 43 44 45 46 47 48 49 50
000
ASUS41 KBTV 260830
RWRBTV
VERMONT REGIONAL WEATHER ROUNDUP
NATIONAL WEATHER SERVICE BURLINGTON VT
400 AM EDT SUN MAR 26 2017

NOTE: "FAIR" INDICATES FEW OR NO CLOUDS BELOW 12,000 FEET WITH NO
SIGNIFICANT WEATHER AND/OR OBSTRUCTIONS TO VISIBILITY.

* THESE REPORTS ARE NOT UNDER NWS QUALITY CONTROL AND/OR DO NOT
  REPORT WEATHER SUCH AS PRECIPITATION AND FOG.

VTZ001>019-260900-
_____VERMONT_____


CITY           SKY/WX    TMP DP  RH WIND       PRES   REMARKS
BURLINGTON     CLOUDY    18  15  88 NE3       30.49F FOG
MONTPELIER     FOG       14  14 100 CALM      30.49F VSB 3/4
MORRISVILLE    CLOUDY     6   3  87 CALM      30.50R
ST. JOHNSBURY*   N/A     13  10  88 MISG      30.47S
LYNDONVILLE*   FAIR      16   8  72 SW3       30.47S
MIDDLEBURY*    FAIR      18  14  84 CALM      30.46S
RUTLAND*       CLOUDY    20  18  92 CALM      30.44S
SPRINGFIELD    PTCLDY    24  20  84 CALM      30.47R
HIGHGATE*      FAIR      13  11  93 SE3       30.51S
NEWPORT*       FAIR      11   9  91 SW3       30.48S
BENNINGTON     PTCLDY    22  20  92 CALM      30.41S FOG
SUTTON*          N/A     16 N/A N/A MISG        N/A
ISLAND POND*     N/A     -4 N/A N/A CALM        N/A
GALLUP MILLS*    N/A      1 N/A N/A MISG        N/A
UNION VILLAGE*   N/A     19 N/A N/A MISG        N/A
MT. MANSFIELD*   N/A     16 N/A N/A E6          N/A  WCI   7

_____LAKE CHAMPLAIN_____


CITY           SKY/WX    TMP DP  RH WIND       PRES   REMARKS
BURTON ISLAND*   N/A     19  18  93 E1          N/A
COLCHESTER RF*   N/A     27  25  93 NW8         N/A  WCI  18
DIAMOND ISL*     N/A     30  21  69 N10         N/A  WCI  21

$$

NYZ007-026>031-035-052-083-087-260900-
_____NORTHERN NEW YORK_____


CITY           SKY/WX    TMP DP  RH WIND       PRES   REMARKS
PLATTSBURGH    CLOUDY    17  13  84 CALM      30.50F
SARANAC LAKE   CLOUDY     4   1  88 SW8       30.36F WCI  -9
MASSENA        CLOUDY    19  17  92 NE7       30.48S WCI  10
STARK FALLS*     N/A     19 N/A N/A E6          N/A  WCI  11
WATERTOWN      CLOUDY    28  26  92 E8        30.39S WCI  20
FT DRUM        PTCLDY    26  22  85 E5        30.37S WCI  21
ALBANY         CLOUDY    28  14  55 N7        30.46S WCI  21
GLENS FALLS    CLOUDY    25  19  78 N6        30.46S WCI  18

$$
NHZ002-005-011-260900-
_____NEW HAMPSHIRE_____


CITY           SKY/WX    TMP DP  RH WIND       PRES   REMARKS
LEBANON        CLOUDY    19  17  92 S3        30.47R
KEENE          PTCLDY    23  21  93 CALM      30.47R FOG
MT WASHINGTON  PTCLDY    19 -20  16 NW21        N/A  WCI   3
PLYMOUTH       FAIR      16  14  94 CALM      30.47S
WHITEFIELD     CLOUDY     5   1  83 CALM      30.45R

$$

_____REGIONAL QUEBEC LOCATIONS_____


CITY           SKY/WX    TMP DP  RH WIND       PRES   REMARKS
MONTREAL       CLEAR     23   5  46 NE12      30.52S WCI  12
QUEBEC CITY    PTCLDY    16  -2  45 N7        30.54R WCI   6
SHERBROOKE     CLEAR      5   0  78 E5        30.47S WCI  -4

_____REGIONAL ONTARIO LOCATIONS_____


CITY           SKY/WX    TMP DP  RH WIND       PRES   REMARKS
OTTAWA         PTCLDY    21  19  93 NE10      30.46S WCI  10

______KEY______
VSB  - VISIBILITY IN MILES
WCI  - WIND CHILL INDEX
HX   - HEAT INDEX
$$
NNNN




USA.gov is the U.S. government's official web portal to all federal, state and local government web resources and services.